OE8NDR-11 Weather Reports


Display with metric or nautical units.
time (UTC)temp
F
wind
direction
speed
MPH
gust
MPH
rain 1hr
in
rain 24hr
in
rain mn
in
humidity
%
barometer
mb
20260504160314 70 221 4.0 8.0 0.00 0.00 0.00 43 1017.0
20260504150814 70 225 8.0 13.0 0.00 0.00 0.00 41 1017.0
20260504150314 70 196 9.0 13.0 0.00 0.00 0.00 40 1016.9
20260504141314 71 236 8.0 15.0 0.00 0.00 0.00 38 1016.9
20260504140814 71 238 9.0 12.0 0.00 0.00 0.00 39 1016.8
20260504140314 71 247 10.0 13.0 0.00 0.00 0.00 40 1016.8
20260504130814 71 304 10.0 14.0 0.00 0.00 0.00 40 1017.1
20260504130314 71 267 10.0 14.0 0.00 0.00 0.00 40 1017.3
20260504120314 71 291 9.0 14.0 0.00 0.00 0.00 30 1017.7
20260504110314 70 218 6.0 7.0 0.00 0.00 0.00 35 1018.7
20260504100314 69 323 3.0 8.0 0.00 0.00 0.00 35 1019.4
20260504081814 67 49 2.0 4.0 0.00 0.00 0.00 34 1019.9
20260504081315 67 35 2.0 4.0 0.00 0.00 0.00 35 1020.0
20260504080814 66 39 2.0 3.0 0.00 0.00 0.00 35 1019.9
20260504080314 66 286 2.0 4.0 0.00 0.00 0.00 36 1019.9
20260504070315 65 140 1.0 3.0 0.00 0.00 0.00 35 1020.1
20260504050315 57 44 2.0 3.0 0.00 0.00 0.00 41 1019.8
20260504045815 57 331 1.0 2.0 0.00 0.00 0.00 41 1019.8
20260504045315 56 302 2.0 3.0 0.00 0.00 0.00 42 1019.8
20260504044815 56 302 3.0 4.0 0.00 0.00 0.00 42 1019.6
20260504044315 56 302 4.0 6.0 0.00 0.00 0.00 43 1019.7
20260504043815 55 264 4.0 6.0 0.00 0.00 0.00 44 1019.7
20260504043315 54 271 3.0 7.0 0.00 0.00 0.00 46 1019.6
20260504042815 54 259 2.0 4.0 0.00 0.00 0.00 47 1019.6
20260504042315 54 302 2.0 2.0 0.00 0.00 0.00 46 1019.4
20260504041815 54 281 2.0 2.0 0.00 0.00 0.00 46 1019.4
20260504041315 54 258 2.0 4.0 0.00 0.00 0.00 46 1019.4
20260504040815 54 350 3.0 4.0 0.00 0.00 0.00 45 1019.3
20260504040315 55 347 3.0 5.0 0.00 0.00 0.00 44 1019.1
20260504035815 55 327 3.0 5.0 0.00 0.00 0.00 43 1019.0
20260504035315 57 323 4.0 4.0 0.00 0.00 0.00 42 1019.0
20260504034815 57 86 6.0 7.0 0.00 0.00 0.00 39 1019.0
20260504034315 58 91 7.0 10.0 0.00 0.00 0.00 38 1018.9
20260504033815 57 78 6.0 9.0 0.00 0.00 0.00 39 1018.8
20260504033315 56 80 5.0 9.0 0.00 0.00 0.00 40 1018.8
20260504032815 56 69 2.0 6.0 0.00 0.00 0.00 41 1018.9
20260504032315 56 81 1.0 4.0 0.00 0.00 0.00 41 1018.7
20260504031815 56 98 1.0 3.0 0.00 0.00 0.00 41 1018.8
20260504031315 56 98 3.0 6.0 0.00 0.00 0.00 41 1018.9
20260504030815 57 107 5.0 8.0 0.00 0.00 0.00 40 1018.9
20260504030315 57 57 3.0 7.0 0.00 0.00 0.00 40 1018.9
20260504025815 57 55 1.0 7.0 0.00 0.00 0.00 40 1018.8
20260504025315 57 23 1.0 2.0 0.00 0.00 0.00 40 1018.9
20260504024815 58 134 4.0 4.0 0.00 0.00 0.00 39 1018.9
20260504024315 58 108 7.0 11.0 0.00 0.00 0.00 39 1018.8
20260504023815 58 74 8.0 15.0 0.00 0.00 0.00 37 1018.8
20260504023315 59 72 7.0 15.0 0.00 0.00 0.00 37 1018.8
20260504022815 58 83 5.0 13.0 0.00 0.00 0.00 37 1018.8
20260504022315 57 91 3.0 6.0 0.00 0.00 0.00 40 1018.9
20260504021815 57 109 2.0 7.0 0.00 0.00 0.00 40 1018.8
20260504021315 57 53 2.0 6.0 0.00 0.00 0.00 40 1018.8
20260504020815 57 136 2.0 5.0 0.00 0.00 0.00 40 1018.8
20260504020315 57 132 3.0 5.0 0.00 0.00 0.00 40 1018.8
20260504015815 57 134 4.0 7.0 0.00 0.00 0.00 40 1018.7
20260504015315 57 124 3.0 5.0 0.00 0.00 0.00 40 1018.8
20260504014815 58 144 4.0 5.0 0.00 0.00 0.00 38 1018.7
20260504014315 59 138 7.0 9.0 0.00 0.00 0.00 36 1018.7
20260504013815 60 94 8.0 14.0 0.00 0.00 0.00 34 1018.7
20260504013315 60 119 9.0 12.0 0.00 0.00 0.00 34 1018.7
20260504012815 60 65 11.0 14.0 0.00 0.00 0.00 33 1018.6
20260504012315 60 74 12.0 17.0 0.00 0.00 0.00 33 1018.6
20260504011815 60 79 13.0 19.0 0.00 0.00 0.00 34 1018.5
20260504011316 60 71 13.0 19.0 0.00 0.00 0.00 33 1018.5
20260504010815 60 59 13.0 16.0 0.00 0.00 0.00 33 1018.5
20260504010315 60 73 12.0 18.0 0.00 0.00 0.00 34 1018.5
20260504005815 60 94 9.0 17.0 0.00 0.00 0.00 34 1018.5
20260504005315 59 82 8.0 9.0 0.00 0.00 0.00 37 1018.6
20260504004815 59 77 8.0 12.0 0.00 0.00 0.00 36 1018.6
20260504004315 60 65 9.0 13.0 0.00 0.00 0.00 36 1018.6
20260504003815 60 51 10.0 18.0 0.00 0.00 0.00 34 1018.6
20260504003315 60 93 12.0 17.0 0.00 0.00 0.00 34 1018.5
20260504002815 60 48 12.0 19.0 0.00 0.00 0.00 33 1018.5
20260504002315 60 88 11.0 14.0 0.00 0.00 0.00 35 1018.4
20260504001816 60 55 11.0 17.0 0.00 0.00 0.00 34 1018.6
20260504001315 60 82 10.0 16.0 0.00 0.00 0.00 35 1018.5
20260504000815 59 62 8.0 14.0 0.00 0.00 0.00 35 1018.7
20260504000315 59 73 6.0 13.0 0.00 0.00 0.00 37 1018.7
20260503235815 59 102 7.0 12.0 0.00 0.00 0.00 37 1018.7
20260503235315 60 96 6.0 8.0 0.00 0.00 0.00 37 1018.8
20260503234815 60 99 5.0 8.0 0.00 0.00 0.00 37 1018.9
20260503234315 60 93 5.0 9.0 0.00 0.00 0.00 36 1018.9
20260503233815 60 109 4.0 8.0 0.00 0.00 0.00 36 1019.0
20260503233315 60 97 5.0 7.0 0.00 0.00 0.00 37 1019.1
20260503232815 60 56 5.0 12.0 0.00 0.00 0.00 36 1019.2
20260503232315 60 160 4.0 11.0 0.00 0.00 0.00 37 1019.1
20260503231816 60 144 3.0 7.0 0.00 0.00 0.00 36 1019.2
20260503231316 60 107 2.0 4.0 0.00 0.00 0.00 37 1019.2
20260503230816 61 180 2.0 7.0 0.00 0.00 0.00 36 1019.2
20260503230316 61 94 2.0 3.0 0.00 0.00 0.00 37 1019.1
20260503225816 61 81 3.0 7.0 0.00 0.00 0.00 37 1019.2
20260503225316 61 80 4.0 6.0 0.00 0.00 0.00 37 1019.2
20260503224816 61 184 4.0 7.0 0.00 0.00 0.00 37 1019.1
20260503224316 61 161 4.0 7.0 0.00 0.00 0.00 37 1019.2
20260503223816 61 132 3.0 7.0 0.00 0.00 0.00 38 1019.2
20260503223316 61 148 3.0 6.0 0.00 0.00 0.00 36 1019.2
20260503222816 62 108 5.0 9.0 0.00 0.00 0.00 37 1019.3
20260503222316 62 123 7.0 9.0 0.00 0.00 0.00 36 1019.2
20260503221816 62 92 9.0 13.0 0.00 0.00 0.00 36 1019.1
20260503221316 62 94 10.0 14.0 0.00 0.00 0.00 36 1019.0
20260503220816 62 104 11.0 15.0 0.00 0.00 0.00 36 1019.1
20260503220316 62 55 10.0 16.0 0.00 0.00 0.00 36 1019.0
20260503215816 62 96 10.0 13.0 0.00 0.00 0.00 37 1018.9
20260503215316 62 90 11.0 16.0 0.00 0.00 0.00 36 1018.8
20260503214816 62 115 11.0 14.0 0.00 0.00 0.00 37 1018.8
20260503214316 62 96 10.0 15.0 0.00 0.00 0.00 36 1018.8
20260503213816 62 95 9.0 12.0 0.00 0.00 0.00 37 1018.9
20260503213316 62 100 7.0 9.0 0.00 0.00 0.00 39 1018.8
20260503212816 61 92 7.0 9.0 0.00 0.00 0.00 40 1018.8
20260503212316 60 93 6.0 9.0 0.00 0.00 0.00 43 1018.8
20260503211816 58 90 6.0 10.0 0.00 0.00 0.00 47 1018.8
20260503211316 57 107 5.0 12.0 0.00 0.00 0.00 52 1018.8
20260503210816 56 81 4.0 7.0 0.00 0.00 0.00 61 1018.6
20260503210316 56 74 3.0 5.0 0.00 0.00 0.00 66 1018.6
20260503205816 56 34 2.0 4.0 0.00 0.00 0.00 67 1018.6
20260503205316 56 104 2.0 4.0 0.00 0.00 0.00 67 1018.5
20260503204816 56 107 2.0 3.0 0.00 0.00 0.00 68 1018.6
20260503204316 56 107 2.0 3.0 0.00 0.00 0.00 68 1018.6
20260503203816 56 108 2.0 3.0 0.00 0.00 0.00 68 1018.6
20260503203316 56 107 1.0 3.0 0.00 0.00 0.00 68 1018.6
20260503202816 56 135 2.0 4.0 0.00 0.00 0.00 67 1018.5
20260503202316 56 115 3.0 3.0 0.00 0.00 0.00 67 1018.5
20260503201816 56 78 3.0 7.0 0.00 0.00 0.00 67 1018.5
20260503201316 57 113 4.0 6.0 0.00 0.00 0.00 66 1018.4
20260503200816 57 112 4.0 7.0 0.00 0.00 0.00 66 1018.4
20260503200316 57 117 3.0 7.0 0.00 0.00 0.00 66 1018.4
20260503195816 57 135 3.0 4.0 0.00 0.00 0.00 65 1018.5
20260503195316 58 148 4.0 5.0 0.00 0.00 0.00 65 1018.4
20260503194816 57 136 3.0 5.0 0.00 0.00 0.00 65 1018.3
20260503194316 57 130 2.0 4.0 0.00 0.00 0.00 65 1018.2
20260503193816 58 112 3.0 3.0 0.00 0.00 0.00 65 1018.2
20260503193316 58 112 3.0 4.0 0.00 0.00 0.00 64 1018.1
20260503192816 58 115 4.0 5.0 0.00 0.00 0.00 63 1018.1
20260503192316 59 123 3.0 4.0 0.00 0.00 0.00 62 1018.1
20260503191816 60 126 3.0 4.0 0.00 0.00 0.00 60 1018.0
20260503191316 60 142 3.0 5.0 0.00 0.00 0.00 59 1018.0
20260503190816 60 172 3.0 4.0 0.00 0.00 0.00 59 1018.0
20260503190316 60 163 4.0 5.0 0.00 0.00 0.00 59 1017.8
20260503185816 60 165 4.0 5.0 0.00 0.00 0.00 59 1017.9
20260503185316 60 167 3.0 4.0 0.00 0.00 0.00 59 1017.9
20260503184816 60 177 3.0 4.0 0.00 0.00 0.00 58 1017.8
20260503184316 60 175 3.0 4.0 0.00 0.00 0.00 59 1017.8
20260503183816 61 136 3.0 4.0 0.00 0.00 0.00 60 1017.7
20260503183316 61 135 3.0 4.0 0.00 0.00 0.00 59 1017.7
20260503182816 61 171 3.0 5.0 0.00 0.00 0.00 58 1017.6
20260503182316 61 260 3.0 4.0 0.00 0.00 0.00 58 1017.5
20260503181816 61 260 3.0 4.0 0.00 0.00 0.00 57 1017.5
20260503181316 61 284 2.0 4.0 0.00 0.00 0.00 57 1017.4
20260503180816 61 252 2.0 3.0 0.00 0.00 0.00 58 1017.4
20260503180316 62 301 2.0 4.0 0.00 0.00 0.00 57 1017.4
20260503175816 62 274 3.0 6.0 0.00 0.00 0.00 57 1017.4
20260503175316 62 257 5.0 7.0 0.00 0.00 0.00 57 1017.3
20260503174817 62 261 6.0 9.0 0.00 0.00 0.00 57 1017.2
20260503174316 62 294 7.0 9.0 0.00 0.00 0.00 56 1017.1
20260503173816 62 287 7.0 10.0 0.00 0.00 0.00 56 1017.0
20260503173316 63 286 7.0 10.0 0.00 0.00 0.00 55 1017.0
20260503172816 63 288 7.0 11.0 0.00 0.00 0.00 55 1017.0
20260503172316 63 276 8.0 14.0 0.00 0.00 0.00 54 1016.8
20260503171816 63 285 8.0 11.0 0.00 0.00 0.00 54 1016.9
20260503171316 64 304 9.0 12.0 0.00 0.00 0.00 53 1016.9
20260503170816 64 296 9.0 15.0 0.00 0.00 0.00 52 1016.8
20260503170316 64 266 10.0 13.0 0.00 0.00 0.00 51 1016.7